全部
Smalandsstenar Airport (Smalandsstenar) ESMY 天氣
There is no TAF data available at ESMY or any nearby airports.
There is no METAR data available at ESMY. Showing METAR data for ESMV (27 mi E).
ESMV近期METAR歷史資料(ESMY無資料)
| Date | Time (CEST) | Flight Rules | Wind Dir. | Speed | Type | Height AGL (ft) | Visibility | Temp (°C) | Temp (°F) | Dew Point (°C) | Dew Point (°F) | Rel. Humid. | Pressure | Density Altitude | Remarks |
|---|---|---|---|---|---|---|---|---|---|---|---|---|---|---|---|
| 06-五月 | 02:50 | VFR | 20° | 1 kt | 10000 meters | -3° | 26° | -6° | 21° | 80% | 1012 mb | -1,568 ft | |||
| 06-五月 | 02:20 | VFR | 360° | 1 kt | 10000 meters | -4° | 24° | -6° | 21° | 86% | 1012 mb | -1,688 ft | |||
| 06-五月 | 01:50 | VFR | Variable | 1 kt | 10000 meters | -3° | 26° | -6° | 21° | 80% | 1012 mb | -1,568 ft | |||
| 06-五月 | 01:20 | VFR | 20° | 1 kt | 10000 meters | -3° | 26° | -6° | 21° | 80% | 1012 mb | -1,568 ft | |||
| 06-五月 | 00:50 | VFR | Calm | 10000 meters | -2° | 28° | -5° | 23° | 80% | 1012 mb | -1,448 ft | ||||
| 06-五月 | 00:20 | VFR | Calm | 10000 meters | -1° | 30° | -5° | 23° | 74% | 1012 mb | -1,328 ft | ||||
| 05-五月 | 23:50 | VFR | Calm | 10000 meters | -1° | 30° | -6° | 21° | 69% | 1011 mb | -1,299 ft | ||||
| 05-五月 | 23:20 | VFR | Calm | 10000 meters | 0° | 32° | -5° | 23° | 69% | 1011 mb | -1,179 ft | ||||
| 05-五月 | 22:50 | VFR | Calm | 10000 meters | 1° | 33° | -4° | 24° | 69% | 1011 mb | -1,059 ft | ||||
| 05-五月 | 22:20 | VFR | Variable | 2 kt | 10000 meters | 3° | 37° | -5° | 23° | 56% | 1011 mb | -819 ft | |||
| 05-五月 | 21:50 | VFR | Variable | 2 kt | 10000 meters | 5° | 41° | -6° | 21° | 45% | 1011 mb | -579 ft | |||
| 05-五月 | 21:20 | VFR | Variable | 2 kt | 10000 meters | 6° | 42° | -5° | 23° | 45% | 1010 mb | -429 ft | |||
| 05-五月 | 20:50 | VFR | 300° | 3 kt | 10000 meters | 9° | 48° | -7° | 19° | 31% | 1010 mb | -69 ft | |||
| 05-五月 | 20:20 | VFR | 310° | 4 kt | 10000 meters | 10° | 50° | -8° | 17° | 27% | 1010 mb | 51 ft | |||
| 05-五月 | 19:50 | VFR | 290° | 7 kt | 10000 meters | 12° | 53° | -7° | 19° | 26% | 1010 mb | 291 ft | |||
| 05-五月 | 19:20 | VFR | 290° | 7 kt | 10000 meters | 12° | 53° | -8° | 17° | 24% | 1009 mb | 320 ft | |||
| 05-五月 | 18:50 | VFR | 280° | 6 kt | 10000 meters | 13° | 55° | -9° | 15° | 21% | 1009 mb | 440 ft | |||
| 05-五月 | 18:20 | VFR | 290° | 9 kt | 10000 meters | 13° | 55° | -9° | 15° | 21% | 1009 mb | 440 ft | |||
| 05-五月 | 17:50 | VFR | 290° | 8 kt | 10000 meters | 14° | 57° | -9° | 15° | 19% | 1009 mb | 560 ft | |||
| 05-五月 | 17:20 | VFR | 270° | 7 kt | 10000 meters | 14° | 57° | -9° | 15° | 19% | 1009 mb | 560 ft | |||
| 05-五月 | 16:50 | VFR | 260° | 6 kt | 10000 meters | 14° | 57° | -8° | 17° | 21% | 1009 mb | 560 ft | |||
| 05-五月 | 16:20 | VFR | 270° | 8 kt | 10000 meters | 14° | 57° | -9° | 15° | 19% | 1009 mb | 560 ft | |||
| 05-五月 | 15:50 | VFR | 300° | 6 kt | 10000 meters | 14° | 57° | -9° | 15° | 19% | 1009 mb | 560 ft | |||
| 05-五月 | 15:20 | VFR | 280° | 7 kt | 10000 meters | 14° | 57° | -9° | 15° | 19% | 1009 mb | 560 ft |
登入
| 您的瀏覽器不支援. 升級您的瀏覽器 |
